Mattoon, IL

3:38 AM CDT on October 14, 2019 (GMT -0500)
Coles County Memorial

Weather History for KMTO - May, 2019

Change the Weather History Date:

Tuesday, May 7, 2019

  Actual Average Record
Temperature  
Mean Temperature 64 °F 61 °F  
Max Temperature 76 °F 71 °F 89 °F (1986)
Min Temperature 52 °F 51 °F 31 °F (1989)
Degree Days  
Heating Degree Days 1 5  
Month to date heating degree days 38 43  
Since 1 July heating degree days 5425 5305  
Cooling Degree Days 0 1  
Month to date cooling degree days 1 7  
Year to date cooling degree days 6 21  
Growing Degree Days 14 (Base 50)    
Moisture  
Dew Point 54 °F    
Average Humidity 72    
Maximum Humidity 93    
Minimum Humidity 50    
Precipitation  
Precipitation 0.00 in 0.15 in 3.08 in (2002)
Month to date precipitation 0.47 1.09  
Year to date precipitation 9.49 11.07  
Sea Level Pressure  
Sea Level Pressure 30.07 in    
Wind  
Wind Speed 4 mph (East)    
Max Wind Speed 15 mph    
Max Gust Speed 20 mph    
Visibility 10 miles    
Events      
T = Trace of Precipitation, MM = Missing Value Source: NWS Daily Summary

Daily Weather History Graph

Daily Weather History Graph

Search for Another Location

Airport or City:

Astronomy

May. 07, 2019 Rise Set
Actual Time 5:47 AM CDT 7:52 PM CDT
Civil Twilight 5:17 AM CDT 8:22 PM CDT
Nautical Twilight 4:41 AM CDT 8:58 PM CDT
Astronomical Twilight 4:02 AM CDT 9:37 PM CDT
Moon 7:53 AM CDT (5/7) 10:52 PM CDT (5/7)
Length of Visible Light 15h 04m
Length of Day
14h 05m
Waxing Crescent, 9% of the Moon is Illuminated
May 7
Waxing Crescent
May 11
First Quarter
May 18
Full
May 26
Last Quarter
Jun 3
New

Hourly Weather History & Observations

Time (CDT) Temp. Dew Point Humidity Pressure Visibility Wind Dir Wind Speed Gust Speed Precip Events Conditions
12:53 AM 57.9 °F 54.0 °F 87% 30.04 in 10.0 mi South 3.5 mph - N/A   Clear
1:53 AM 59.0 °F 51.1 °F 75% 30.04 in 10.0 mi SSW 3.5 mph - N/A   Clear
2:53 AM 55.0 °F 50.0 °F 83% 30.03 in 10.0 mi South 3.5 mph - N/A   Clear
3:53 AM 54.0 °F 52.0 °F 93% 30.03 in 10.0 mi Calm Calm - N/A   Clear
4:53 AM 55.9 °F 53.1 °F 90% 30.04 in 10.0 mi South 3.5 mph - N/A   Clear
5:53 AM 54.0 °F 51.1 °F 90% 30.06 in 10.0 mi Calm Calm - N/A   Mostly Cloudy
6:53 AM 55.9 °F 52.0 °F 87% 30.10 in 10.0 mi NNE 4.6 mph - N/A   Overcast
7:53 AM 57.9 °F 53.1 °F 84% 30.12 in 10.0 mi Calm Calm - N/A   Overcast
8:53 AM 61.0 °F 54.0 °F 78% 30.11 in 10.0 mi NNE 3.5 mph - N/A   Overcast
9:53 AM 66.9 °F 53.1 °F 61% 30.09 in 10.0 mi Calm Calm - N/A   Clear
10:53 AM 71.1 °F 53.1 °F 53% 30.08 in 10.0 mi Calm Calm - N/A   Clear
11:53 AM 73.0 °F 55.9 °F 55% 30.09 in 10.0 mi Variable 3.5 mph - N/A   Clear
12:53 PM 73.0 °F 55.0 °F 53% 30.09 in 10.0 mi North - - N/A   Mostly Cloudy
1:53 PM 75.0 °F 57.0 °F 53% 30.08 in 10.0 mi SSE 8.1 mph - N/A   Overcast
2:53 PM 73.9 °F 55.0 °F 52% 30.08 in 10.0 mi Calm Calm - N/A   Mostly Cloudy
3:53 PM 73.9 °F 55.0 °F 52% 30.07 in 10.0 mi Calm Calm - N/A   Overcast
4:53 PM 73.9 °F 55.9 °F 53% 30.06 in 10.0 mi Calm Calm - N/A   Partly Cloudy
5:53 PM 75.0 °F 55.9 °F 51% 30.06 in 10.0 mi SSE 3.5 mph - N/A   Mostly Cloudy
6:53 PM 72.0 °F 57.9 °F 61% 30.05 in 10.0 mi North - - N/A   Clear
7:53 PM 66.9 °F 57.9 °F 73% 30.06 in 8.0 mi NNE 12.7 mph - N/A   Clear
8:53 PM 63.0 °F 57.0 °F 81% 30.08 in 7.0 mi NNE 11.5 mph - N/A   Clear
9:53 PM 61.0 °F 55.9 °F 83% 30.08 in 8.0 mi NNE 6.9 mph - N/A   Clear
10:53 PM 60.1 °F 54.0 °F 80% 30.08 in 10.0 mi NE 9.2 mph - N/A   Clear
11:53 PM 60.1 °F 54.0 °F 80% 30.06 in 10.0 mi East 11.5 mph - N/A   Clear